Location: Anne Acres
(38.7004°N, 75.0827°W)
Time: 23:23:40
(UTC+00:00)

S-56A Canister/Altair - All Passes

Search period start: 04 November 2024 00:00
Search period end: 14 November 2024 00:00
Orbit: 635 x 2487 km, 38.9° (Epoch: 04 November)

Date Brightness Start Highest point End Pass type
(mag) Time Alt. Az. Time Alt. Az. Time Alt. Az.
04 Nov - 05:06:46 10° S 05:17:12 32° SE 05:29:22 10° E visible
04 Nov - 07:08:38 10° SW 07:22:11 68° SSE 07:36:56 10° ENE visible
04 Nov - 09:14:04 10° W 09:29:08 90° S 09:43:01 10° E visible
04 Nov - 11:21:03 10° W 11:36:14 82° SSW 11:48:06 10° ESE daylight
04 Nov - 13:28:38 10° WNW 13:41:31 46° SW 13:50:59 10° SSE daylight
04 Nov - 15:40:30 10° WSW 15:44:12 12° WSW 15:47:33 10° SW daylight
05 Nov - 04:33:17 10° S 04:42:41 27° SE 04:53:49 10° E visible
05 Nov - 06:34:18 10° SW 06:47:13 63° SSE 07:01:59 10° ENE visible
05 Nov - 08:39:12 10° WSW 08:53:57 89° S 09:08:20 10° E visible
05 Nov - 10:45:56 10° W 11:01:14 85° SSW 11:13:47 10° ESE visible
05 Nov - 12:53:17 10° WNW 13:06:59 52° SW 13:17:12 10° SE daylight
05 Nov - 15:03:27 10° W 15:10:07 16° SW 15:15:45 10° SSW daylight
06 Nov - 04:00:01 10° S 04:08:16 22° SE 04:18:01 10° E visible
06 Nov - 06:00:05 10° SW 06:12:19 58° SSE 06:26:55 10° ENE visible
06 Nov - 08:04:28 10° WSW 08:18:46 87° SSE 08:33:34 10° E visible
06 Nov - 10:10:52 10° W 10:26:08 87° S 10:39:21 10° ESE visible
06 Nov - 12:18:01 10° WNW 12:32:19 58° SSW 12:43:17 10° SE daylight
06 Nov - 14:27:13 10° W 14:35:56 21° SW 14:43:03 10° S daylight
07 Nov - 03:27:07 10° SSE 03:33:56 18° SE 03:41:54 10° E night (unlit)
07 Nov - 05:26:01 10° SW 05:37:31 52° SE 05:51:45 10° ENE visible
07 Nov - 07:29:50 10° WSW 07:43:37 84° SSE 07:58:41 10° E visible
07 Nov - 09:35:53 10° W 09:51:00 89° S 10:04:48 10° E visible
07 Nov - 11:42:48 10° WNW 11:57:32 63° SSW 12:09:13 10° SE daylight
07 Nov - 13:51:19 10° W 14:01:39 26° SW 14:09:57 10° S daylight
08 Nov - 02:54:50 10° SSE 02:59:42 14° ESE 03:05:10 10° E night (unlit)
08 Nov - 04:52:05 10° SSW 05:02:49 47° SE 05:16:29 10° ENE visible
08 Nov - 06:55:19 10° WSW 07:08:30 81° SSE 07:23:43 10° E visible
08 Nov - 09:01:00 10° W 09:15:47 90° N 09:30:08 10° E visible
08 Nov - 11:07:39 10° WNW 11:22:38 68° SSW 11:35:02 10° SE visible
08 Nov - 13:15:38 10° W 13:27:15 31° SW 13:36:35 10° S daylight
09 Nov - 04:18:17 10° SSW 04:28:13 41° SE 04:41:08 10° ENE visible
09 Nov - 06:20:55 10° WSW 06:33:26 78° SSE 06:48:38 10° ENE visible
09 Nov - 08:26:12 10° W 08:40:34 89° N 08:55:21 10° E visible
09 Nov - 10:32:36 10° WNW 10:47:39 73° SSW 11:00:43 10° ESE visible
09 Nov - 12:40:06 10° WNW 12:52:44 36° SW 13:02:59 10° SSE daylight
10 Nov - 03:44:38 10° SSW 03:53:44 35° SE 04:05:39 10° ENE visible
10 Nov - 05:46:39 10° WSW 05:58:27 74° SSE 06:13:29 10° ENE visible
10 Nov - 07:51:30 10° W 08:05:22 89° N 08:20:27 10° E visible
10 Nov - 09:57:37 10° WNW 10:12:34 77° SSW 10:26:16 10° ESE visible
10 Nov - 12:04:43 10° WNW 12:18:07 41° SW 12:29:13 10° SSE daylight
10 Nov - 14:18:36 10° WSW 14:21:13 11° WSW 14:23:43 10° SW daylight
11 Nov - 03:11:10 10° S 03:19:22 30° SE 03:30:04 10° E night (unlit)
11 Nov - 05:12:28 10° SW 05:23:34 69° SSE 05:38:16 10° ENE visible
11 Nov - 07:16:54 10° W 07:30:11 89° N 07:45:27 10° E visible
11 Nov - 09:22:43 10° WNW 09:37:27 80° SSW 09:51:41 10° ESE visible
11 Nov - 11:29:27 10° WNW 11:43:22 47° SW 11:55:16 10° SSE daylight
11 Nov - 13:40:28 10° W 13:46:55 15° SW 13:52:47 10° SSW daylight
12 Nov - 02:37:54 10° S 02:45:05 25° SE 02:54:20 10° E night (unlit)
12 Nov - 04:38:24 10° SW 04:48:48 63° SSE 05:03:00 10° ENE visible
12 Nov - 06:42:25 10° W 06:55:01 90° S 07:10:21 10° E visible
12 Nov - 08:47:55 10° W 09:02:17 83° SSW 09:16:57 10° ESE visible
12 Nov - 10:54:19 10° WNW 11:08:32 52° SW 11:21:10 10° SE visible
12 Nov - 13:03:52 10° W 13:12:32 19° SW 13:20:15 10° SSW daylight
13 Nov - 02:04:54 10° S 02:10:55 19° SE 02:18:23 10° E night (unlit)
13 Nov - 04:04:28 10° SW 04:14:07 57° SSE 04:27:40 10° ENE visible
13 Nov - 06:08:00 10° WSW 06:19:56 88° S 06:35:10 10° E visible
13 Nov - 08:13:13 10° W 08:27:05 86° SSW 08:42:07 10° ESE visible
13 Nov - 10:19:16 10° WNW 10:33:37 57° SSW 10:46:54 10° SE visible
13 Nov - 12:27:49 10° W 12:38:03 23° SW 12:47:11 10° S daylight
